Location: Paddlesworth
(51.1000°N, 1.1333°E)
Time: 06:12:34
(UTC+00:00)

Cosmos 158 Rocket - Pass Details

Date: 11 May 2021
Orbit: 699 x 793 km, 74.0° (Epoch: 20 June)

Event Time Altitude Azimuth Distance (km) Brightness Sun altitude
Rises 21:36:43 0° 333° (NNW) 3,096 9.0 -14.7°
Reaches altitude 10° 21:39:02 10° 332° (NNW) 2,173 7.8 -14.9°
Maximum altitude 21:43:54 70° 249° (WSW) 749 3.9 -15.3°
Enters shadow 21:46:51 24° 170° (S) 1,452 4.9 -15.6°
